Time,TemperatureF,DewpointF,PressureIn,WindDirection,WindDirectionDegrees,WindSpeedMPH,WindSpeedGustMPH,Humidity,HourlyPrecipIn,Conditions,Clouds,dailyrainin,SolarRadiationWatts/m^2,SoftwareType,DateUTC
2013-09-16 00:14:00,48.8,46.0,30.12,SW,218,0.0,-999.0,90,-99.99,,,0.00,0,weatherlink.com 1.10,2013-09-16 04:14:00,
2013-09-16 00:29:00,48.6,46.0,30.11,SW,218,0.0,-999.0,90,-99.99,,,0.00,0,weatherlink.com 1.10,2013-09-16 04:29:00,
2013-09-16 00:44:00,48.4,46.0,30.12,SW,218,0.0,-999.0,91,-99.99,,,0.00,0,weatherlink.com 1.10,2013-09-16 04:44:00,
2013-09-16 00:59:00,48.1,46.0,30.11,SW,218,0.0,-999.0,91,-99.99,,,0.00,0,weatherlink.com 1.10,2013-09-16 04:59:00,
2013-09-16 01:14:00,48.2,46.0,30.11,SW,218,0.0,-999.0,92,-99.99,,,0.00,0,weatherlink.com 1.10,2013-09-16 05:14:00,
2013-09-16 01:29:00,48.5,46.0,30.12,SW,218,0.0,-999.0,92,-99.99,,,0.00,0,weatherlink.com 1.10,2013-09-16 05:29:00,
2013-09-16 01:44:00,48.7,47.0,30.12,SW,218,0.0,-999.0,92,-99.99,,,0.00,0,weatherlink.com 1.10,2013-09-16 05:44:00,
2013-09-16 01:59:00,48.8,47.0,30.12,SW,218,0.0,-999.0,92,-99.99,,,0.00,0,weatherlink.com 1.10,2013-09-16 05:59:00,
2013-09-16 02:14:00,48.8,47.0,30.11,SW,218,0.0,-999.0,92,-99.99,,,0.00,0,weatherlink.com 1.10,2013-09-16 06:14:00,
2013-09-16 02:29:00,48.9,47.0,30.10,SW,218,0.0,-999.0,92,-99.99,,,0.00,0,weatherlink.com 1.10,2013-09-16 06:29:00,
2013-09-16 02:44:00,49.1,47.0,30.10,SW,218,0.0,-999.0,91,-99.99,,,0.00,0,weatherlink.com 1.10,2013-09-16 06:44:00,
2013-09-16 02:59:00,49.1,47.0,30.10,SW,218,0.0,-999.0,92,-99.99,,,0.00,0,weatherlink.com 1.10,2013-09-16 06:59:00,
2013-09-16 03:14:00,49.2,47.0,30.10,SW,218,0.0,-999.0,92,-99.99,,,0.00,0,weatherlink.com 1.10,2013-09-16 07:14:00,
2013-09-16 03:29:00,49.5,47.0,30.11,SW,218,0.0,-999.0,92,-99.99,,,0.00,0,weatherlink.com 1.10,2013-09-16 07:29:00,
2013-09-16 03:44:00,49.5,47.0,30.10,SW,218,0.0,-999.0,91,-99.99,,,0.00,0,weatherlink.com 1.10,2013-09-16 07:44:00,
2013-09-16 03:59:00,49.6,47.0,30.11,SW,218,0.0,-999.0,91,-99.99,,,0.00,0,weatherlink.com 1.10,2013-09-16 07:59:00,
2013-09-16 04:14:00,49.7,47.0,30.11,SW,218,0.0,-999.0,91,-99.99,,,0.00,0,weatherlink.com 1.10,2013-09-16 08:14:00,
2013-09-16 04:29:00,49.9,47.0,30.11,SSW,206,1.0,-999.0,91,-99.99,,,0.01,0,weatherlink.com 1.10,2013-09-16 08:29:00,
2013-09-16 04:44:00,49.9,48.0,30.11,SSW,206,0.0,-999.0,92,-99.99,,,0.01,0,weatherlink.com 1.10,2013-09-16 08:44:00,
2013-09-16 04:59:00,50.1,48.0,30.10,SSW,206,0.0,-999.0,92,-99.99,,,0.02,0,weatherlink.com 1.10,2013-09-16 08:59:00,
2013-09-16 05:14:00,49.9,48.0,30.10,SSW,206,0.0,-999.0,93,-99.99,,,0.02,0,weatherlink.com 1.10,2013-09-16 09:14:00,
2013-09-16 05:29:00,49.7,48.0,30.11,SSW,206,0.0,-999.0,93,-99.99,,,0.03,0,weatherlink.com 1.10,2013-09-16 09:29:00,
2013-09-16 05:44:00,49.8,48.0,30.11,SSW,206,0.0,-999.0,93,-99.99,,,0.03,0,weatherlink.com 1.10,2013-09-16 09:44:00,
2013-09-16 05:59:00,49.9,48.0,30.11,SSW,206,0.0,-999.0,93,-99.99,,,0.04,0,weatherlink.com 1.10,2013-09-16 09:59:00,
2013-09-16 06:14:00,49.9,48.0,30.12,SSW,206,0.0,-999.0,94,-99.99,,,0.05,0,weatherlink.com 1.10,2013-09-16 10:14:00,
2013-09-16 06:29:00,50.1,49.0,30.12,SSW,206,0.0,-999.0,94,-99.99,,,0.05,0,weatherlink.com 1.10,2013-09-16 10:29:00,
2013-09-16 06:44:00,50.0,48.0,30.12,SSW,206,0.0,-999.0,94,-99.99,,,0.05,0,weatherlink.com 1.10,2013-09-16 10:44:00,
2013-09-16 06:59:00,49.8,48.0,30.12,SSW,206,0.0,-999.0,94,-99.99,,,0.05,0,weatherlink.com 1.10,2013-09-16 10:59:00,
2013-09-16 07:14:00,49.7,48.0,30.12,SSW,206,0.0,-999.0,94,-99.99,,,0.05,5,weatherlink.com 1.10,2013-09-16 11:14:00,
2013-09-16 07:29:00,49.8,48.0,30.13,SSW,206,0.0,-999.0,94,-99.99,,,0.05,21,weatherlink.com 1.10,2013-09-16 11:29:00,
2013-09-16 07:44:00,49.9,48.0,30.12,SSW,206,0.0,-999.0,94,-99.99,,,0.05,39,weatherlink.com 1.10,2013-09-16 11:44:00,
2013-09-16 07:59:00,50.1,49.0,30.11,SSW,206,0.0,-999.0,94,-99.99,,,0.05,33,weatherlink.com 1.10,2013-09-16 11:59:00,
2013-09-16 08:14:00,50.3,49.0,30.12,SSW,206,0.0,-999.0,94,-99.99,,,0.05,46,weatherlink.com 1.10,2013-09-16 12:14:00,
2013-09-16 08:29:00,50.4,49.0,30.12,SSW,200,2.0,-999.0,94,-99.99,,,0.05,53,weatherlink.com 1.10,2013-09-16 12:29:00,
2013-09-16 08:44:00,50.8,49.0,30.12,South,184,2.0,-999.0,94,-99.99,,,0.05,91,weatherlink.com 1.10,2013-09-16 12:44:00,
2013-09-16 08:59:00,50.9,49.0,30.12,South,188,1.0,-999.0,94,-99.99,,,0.05,104,weatherlink.com 1.10,2013-09-16 12:59:00,
2013-09-16 09:14:00,52.7,51.0,30.13,SSW,202,0.0,-999.0,93,-99.99,,,0.05,255,weatherlink.com 1.10,2013-09-16 13:14:00,
2013-09-16 09:29:00,52.8,50.0,30.13,WSW,254,0.0,-999.0,91,-99.99,,,0.05,186,weatherlink.com 1.10,2013-09-16 13:29:00,
2013-09-16 09:44:00,53.1,49.0,30.13,WSW,238,4.0,-999.0,87,-99.99,,,0.06,172,weatherlink.com 1.10,2013-09-16 13:44:00,
2013-09-16 09:59:00,53.6,50.0,30.14,West,281,2.0,-999.0,87,-99.99,,,0.06,239,weatherlink.com 1.10,2013-09-16 13:59:00,
2013-09-16 10:14:00,54.4,50.0,30.13,NNW,343,0.0,-999.0,84,-99.99,,,0.06,176,weatherlink.com 1.10,2013-09-16 14:14:00,
2013-09-16 10:29:00,54.6,50.0,30.13,WNW,302,0.0,-999.0,83,-99.99,,,0.06,710,weatherlink.com 1.10,2013-09-16 14:29:00,
2013-09-16 10:44:00,55.5,50.0,30.13,North,10,3.0,-999.0,81,-99.99,,,0.06,278,weatherlink.com 1.10,2013-09-16 14:44:00,
2013-09-16 10:59:00,55.1,49.0,30.14,NNE,19,1.0,-999.0,81,-99.99,,,0.06,216,weatherlink.com 1.10,2013-09-16 14:59:00,
2013-09-16 11:14:00,55.9,50.0,30.14,NNE,20,3.0,-999.0,80,-99.99,,,0.06,420,weatherlink.com 1.10,2013-09-16 15:14:00,
2013-09-16 11:29:00,55.9,50.0,30.13,West,268,0.0,-999.0,79,-99.99,,,0.06,290,weatherlink.com 1.10,2013-09-16 15:29:00,
2013-09-16 11:44:00,56.7,50.0,30.14,North,5,4.0,-999.0,78,-99.99,,,0.06,383,weatherlink.com 1.10,2013-09-16 15:44:00,
2013-09-16 11:59:00,56.0,49.0,30.14,WNW,297,1.0,-999.0,78,-99.99,,,0.06,167,weatherlink.com 1.10,2013-09-16 15:59:00,
2013-09-16 12:14:00,56.0,50.0,30.14,WSW,241,1.0,-999.0,79,-99.99,,,0.06,250,weatherlink.com 1.10,2013-09-16 16:14:00,
2013-09-16 12:29:00,56.9,49.0,30.13,NNW,347,6.0,-999.0,76,-99.99,,,0.06,269,weatherlink.com 1.10,2013-09-16 16:29:00,
2013-09-16 12:44:00,56.2,49.0,30.14,WNW,292,5.0,-999.0,77,-99.99,,,0.06,132,weatherlink.com 1.10,2013-09-16 16:44:00,
2013-09-16 12:59:00,56.6,49.0,30.14,WNW,293,5.0,-999.0,77,-99.99,,,0.06,325,weatherlink.com 1.10,2013-09-16 16:59:00,
2013-09-16 13:14:00,56.6,49.0,30.14,West,264,4.0,-999.0,76,-99.99,,,0.06,206,weatherlink.com 1.10,2013-09-16 17:14:00,
2013-09-16 13:29:00,57.7,50.0,30.14,WNW,286,4.0,-999.0,75,-99.99,,,0.06,250,weatherlink.com 1.10,2013-09-16 17:29:00,
2013-09-16 13:44:00,58.0,50.0,30.14,NW,323,3.0,-999.0,74,-99.99,,,0.06,272,weatherlink.com 1.10,2013-09-16 17:44:00,
2013-09-16 13:59:00,56.5,49.0,30.14,NNW,327,2.0,-999.0,76,-99.99,,,0.06,302,weatherlink.com 1.10,2013-09-16 17:59:00,
2013-09-16 14:14:00,56.0,49.0,30.15,NNW,333,4.0,-999.0,77,-99.99,,,0.06,84,weatherlink.com 1.10,2013-09-16 18:14:00,
2013-09-16 14:29:00,54.9,49.0,30.15,WNW,285,1.0,-999.0,80,-99.99,,,0.06,155,weatherlink.com 1.10,2013-09-16 18:29:00,
2013-09-16 14:44:00,55.1,49.0,30.15,NW,325,2.0,-999.0,80,-99.99,,,0.06,100,weatherlink.com 1.10,2013-09-16 18:44:00,
2013-09-16 14:59:00,55.0,49.0,30.15,NNW,336,1.0,-999.0,81,-99.99,,,0.06,107,weatherlink.com 1.10,2013-09-16 18:59:00,
2013-09-16 15:14:00,54.6,49.0,30.15,NNW,344,2.0,-999.0,81,-99.99,,,0.06,97,weatherlink.com 1.10,2013-09-16 19:14:00,
2013-09-16 15:29:00,54.6,49.0,30.15,WNW,302,0.0,-999.0,81,-99.99,,,0.06,130,weatherlink.com 1.10,2013-09-16 19:29:00,
2013-09-16 15:44:00,55.2,49.0,30.15,NE,45,5.0,-999.0,80,-99.99,,,0.06,230,weatherlink.com 1.10,2013-09-16 19:44:00,
2013-09-16 15:59:00,55.5,49.0,30.15,North,355,1.0,-999.0,79,-99.99,,,0.06,116,weatherlink.com 1.10,2013-09-16 19:59:00,
2013-09-16 16:14:00,55.1,49.0,30.15,WNW,293,9.0,-999.0,80,-99.99,,,0.06,158,weatherlink.com 1.10,2013-09-16 20:14:00,
2013-09-16 16:29:00,54.8,49.0,30.16,NW,318,2.0,-999.0,80,-99.99,,,0.06,47,weatherlink.com 1.10,2013-09-16 20:29:00,
2013-09-16 16:44:00,54.4,49.0,30.16,WSW,246,3.0,-999.0,81,-99.99,,,0.06,81,weatherlink.com 1.10,2013-09-16 20:44:00,
2013-09-16 16:59:00,54.1,48.0,30.16,West,274,0.0,-999.0,81,-99.99,,,0.06,35,weatherlink.com 1.10,2013-09-16 20:59:00,
2013-09-16 17:14:00,54.0,48.0,30.18,North,355,0.0,-999.0,80,-99.99,,,0.06,218,weatherlink.com 1.10,2013-09-16 21:14:00,
2013-09-16 17:29:00,54.5,48.0,30.18,North,355,0.0,-999.0,78,-99.99,,,0.06,47,weatherlink.com 1.10,2013-09-16 21:29:00,
2013-09-16 17:44:00,53.5,47.0,30.19,NNW,346,4.0,-999.0,79,-99.99,,,0.06,40,weatherlink.com 1.10,2013-09-16 21:44:00,
2013-09-16 17:59:00,52.7,47.0,30.20,WNW,290,3.0,-999.0,81,-99.99,,,0.06,26,weatherlink.com 1.10,2013-09-16 21:59:00,
2013-09-16 18:14:00,52.2,47.0,30.20,West,279,6.0,-999.0,82,-99.99,,,0.06,19,weatherlink.com 1.10,2013-09-16 22:14:00,
2013-09-16 18:29:00,51.5,47.0,30.21,NW,307,0.0,-999.0,83,-99.99,,,0.06,32,weatherlink.com 1.10,2013-09-16 22:29:00,
2013-09-16 18:44:00,50.6,45.0,30.22,SW,234,1.0,-999.0,82,-99.99,,,0.06,35,weatherlink.com 1.10,2013-09-16 22:44:00,
2013-09-16 18:59:00,49.9,45.0,30.22,WNW,292,2.0,-999.0,82,-99.99,,,0.06,7,weatherlink.com 1.10,2013-09-16 22:59:00,
2013-09-16 19:14:00,49.0,44.0,30.23,NW,305,0.0,-999.0,83,-99.99,,,0.06,0,weatherlink.com 1.10,2013-09-16 23:14:00,
2013-09-16 19:29:00,48.6,44.0,30.23,NW,313,0.0,-999.0,84,-99.99,,,0.06,0,weatherlink.com 1.10,2013-09-16 23:29:00,
2013-09-16 19:44:00,48.0,44.0,30.24,WNW,289,3.0,-999.0,85,-99.99,,,0.06,0,weatherlink.com 1.10,2013-09-16 23:44:00,
2013-09-16 19:59:00,47.5,44.0,30.25,West,267,0.0,-999.0,86,-99.99,,,0.06,0,weatherlink.com 1.10,2013-09-16 23:59:00,
2013-09-16 20:14:00,46.9,43.0,30.26,NW,304,0.0,-999.0,86,-99.99,,,0.06,0,weatherlink.com 1.10,2013-09-17 00:14:00,
2013-09-16 20:29:00,45.8,42.0,30.27,NE,37,0.0,-999.0,87,-99.99,,,0.06,0,weatherlink.com 1.10,2013-09-17 00:29:00,
2013-09-16 20:44:00,45.0,42.0,30.27,North,351,1.0,-999.0,88,-99.99,,,0.06,0,weatherlink.com 1.10,2013-09-17 00:44:00,
2013-09-16 20:59:00,44.3,41.0,30.28,North,351,0.0,-999.0,87,-99.99,,,0.06,0,weatherlink.com 1.10,2013-09-17 00:59:00,
2013-09-16 21:14:00,43.6,40.0,30.29,North,351,1.0,-999.0,88,-99.99,,,0.06,0,weatherlink.com 1.10,2013-09-17 01:14:00,
2013-09-16 21:29:00,42.9,40.0,30.29,NW,325,2.0,-999.0,89,-99.99,,,0.06,0,weatherlink.com 1.10,2013-09-17 01:29:00,
2013-09-16 21:44:00,42.7,39.0,30.29,North,360,0.0,-999.0,88,-99.99,,,0.06,0,weatherlink.com 1.10,2013-09-17 01:44:00,
2013-09-16 21:59:00,42.6,39.0,30.30,North,5,0.0,-999.0,88,-99.99,,,0.06,0,weatherlink.com 1.10,2013-09-17 01:59:00,
2013-09-16 22:14:00,42.2,39.0,30.30,North,360,0.0,-999.0,87,-99.99,,,0.06,0,weatherlink.com 1.10,2013-09-17 02:14:00,
2013-09-16 22:29:00,41.7,38.0,30.31,NNE,20,1.0,-999.0,87,-99.99,,,0.06,0,weatherlink.com 1.10,2013-09-17 02:29:00,
2013-09-16 22:44:00,41.1,38.0,30.31,NNE,26,0.0,-999.0,88,-99.99,,,0.06,0,weatherlink.com 1.10,2013-09-17 02:44:00,
2013-09-16 22:59:00,40.6,38.0,30.33,NE,38,0.0,-999.0,89,-99.99,,,0.06,0,weatherlink.com 1.10,2013-09-17 02:59:00,
2013-09-16 23:14:00,40.6,38.0,30.33,NE,38,0.0,-999.0,90,-99.99,,,0.06,0,weatherlink.com 1.10,2013-09-17 03:14:00,
2013-09-16 23:29:00,41.0,38.0,30.33,NE,38,0.0,-999.0,90,-99.99,,,0.06,0,weatherlink.com 1.10,2013-09-17 03:29:00,
2013-09-16 23:44:00,41.5,38.0,30.34,WSW,250,0.0,-999.0,88,-99.99,,,0.06,0,weatherlink.com 1.10,2013-09-17 03:44:00,
2013-09-16 23:59:00,41.6,38.0,30.34,SW,225,1.0,-999.0,86,-99.99,,,0.06,0,weatherlink.com 1.10,2013-09-17 03:59:00,